SWA1721 TNCM-KMCO

Flight info

Callsign SWA1721
Flight time N/A
Altitude 32000
Route MODOR2 JUICE B520 STT DCT ACONY Y280 OCTAL MUNGI1
Aircraft B738/M-SDE2E3GIJ4RWZ/LB1D1

Departure

Time N/A
Airport Princess Juliana International Airport (TNCM)

Arrival

Time 2026-04-26 15:17
Airport Orlando International Airport (KMCO)
Time Latitude Longitude Altitude Speed Heading
2026-04-26 15:02 27.98190 -81.06024 15421 ft 361 kts 338°
2026-04-26 15:02 28.00565 -81.06988 14839 ft 360 kts 338°
2026-04-26 15:03 28.02940 -81.07947 14242 ft 360 kts 338°
2026-04-26 15:03 28.05274 -81.08902 13663 ft 359 kts 338°
2026-04-26 15:03 28.07635 -81.09882 13067 ft 358 kts 338°
2026-04-26 15:03 28.09945 -81.10862 12479 ft 358 kts 337°
2026-04-26 15:04 28.12287 -81.11884 11875 ft 357 kts 337°
2026-04-26 15:04 28.14502 -81.12864 11267 ft 353 kts 336°
2026-04-26 15:04 28.16719 -81.13849 10860 ft 337 kts 336°
2026-04-26 15:04 28.18773 -81.14758 10640 ft 318 kts 336°
2026-04-26 15:05 28.19442 -81.15055 10600 ft 311 kts 337°
2026-04-26 15:05 28.24342 -81.17220 10277 ft 264 kts 336°
2026-04-26 15:05 28.26070 -81.17988 10176 ft 278 kts 336°
2026-04-26 15:06 28.27962 -81.18624 9812 ft 284 kts 348°
2026-04-26 15:06 28.29946 -81.18792 9450 ft 285 kts 356°
2026-04-26 15:06 28.31929 -81.18761 9092 ft 284 kts 359°
2026-04-26 15:06 28.33905 -81.18714 8738 ft 278 kts 357°
2026-04-26 15:07 28.37710 -81.18720 8306 ft 264 kts 356°
2026-04-26 15:07 28.39521 -81.18748 8169 ft 255 kts 356°
2026-04-26 15:07 28.41312 -81.18771 7863 ft 253 kts 356°
2026-04-26 15:08 28.43052 -81.18786 7580 ft 251 kts 356°
2026-04-26 15:08 28.44812 -81.18797 7297 ft 249 kts 356°
2026-04-26 15:08 28.46542 -81.18810 7020 ft 245 kts 356°
2026-04-26 15:09 28.49875 -81.18838 6474 ft 238 kts 356°
2026-04-26 15:09 28.51549 -81.18852 6205 ft 235 kts 355°
2026-04-26 15:09 28.53159 -81.18865 5987 ft 230 kts 355°
2026-04-26 15:09 28.54724 -81.18877 5958 ft 220 kts 355°
2026-04-26 15:10 28.56163 -81.18902 5939 ft 222 kts 355°
2026-04-26 15:10 28.57186 -81.18927 5797 ft 223 kts 354°
2026-04-26 15:10 28.59049 -81.18971 5523 ft 216 kts 355°
2026-04-26 15:10 28.60728 -81.18965 5239 ft 211 kts 358°
2026-04-26 15:11 28.62170 -81.18893 4998 ft 207 kts 359°
2026-04-26 15:11 28.63613 -81.18842 4733 ft 202 kts 351°
2026-04-26 15:11 28.64839 -81.19461 4361 ft 195 kts 309°
2026-04-26 15:11 28.65436 -81.20736 4033 ft 192 kts 283°
2026-04-26 15:12 28.65560 -81.22308 3643 ft 195 kts 264°
2026-04-26 15:12 28.65179 -81.23783 3201 ft 197 kts 242°
2026-04-26 15:12 28.64374 -81.24984 3128 ft 184 kts 223°
2026-04-26 15:12 28.63293 -81.25700 3085 ft 179 kts 204°
2026-04-26 15:13 28.62111 -81.26221 3053 ft 183 kts 205°
2026-04-26 15:13 28.60929 -81.26787 3004 ft 185 kts 206°
2026-04-26 15:13 28.59716 -81.27309 2969 ft 180 kts 200°
2026-04-26 15:13 28.58526 -81.27681 2854 ft 177 kts 197°
2026-04-26 15:14 28.57365 -81.28021 2615 ft 170 kts 198°
2026-04-26 15:14 28.56228 -81.28359 2449 ft 166 kts 194°
2026-04-26 15:14 28.55051 -81.28445 2439 ft 170 kts 181°
2026-04-26 15:14 28.53851 -81.28363 2203 ft 173 kts 179°
2026-04-26 15:15 28.52648 -81.28252 1831 ft 174 kts 180°
2026-04-26 15:15 28.51448 -81.28228 1490 ft 168 kts 185°
2026-04-26 15:15 28.50307 -81.28288 1240 ft 162 kts 186°
2026-04-26 15:15 28.49183 -81.28320 1003 ft 158 kts 184°
2026-04-26 15:16 28.48083 -81.28302 831 ft 155 kts 181°
2026-04-26 15:16 28.47004 -81.28281 604 ft 155 kts 182°
2026-04-26 15:16 28.45941 -81.28277 429 ft 150 kts 183°
2026-04-26 15:16 28.44873 -81.28267 230 ft 154 kts 182°
2026-04-26 15:17 28.43792 -81.28248 98 ft 151 kts 181°
2026-04-26 15:17 28.43163 -81.28247 88 ft 109 kts 180°
2026-04-26 15:17 28.42572 -81.28238 88 ft 23 kts 180°
2026-04-26 15:17 28.42417 -81.28242 88 ft 24 kts 185°
2026-04-26 15:18 28.42294 -81.28312 88 ft 10 kts 240°
2026-04-26 15:18 28.42296 -81.28352 87 ft 3 kts 328°
2026-04-26 15:18 28.42315 -81.28358 87 ft 2 kts 351°
2026-04-26 15:18 28.42326 -81.28359 87 ft 0 kts 354°
2026-04-26 15:19 28.42328 -81.28359 88 ft 0 kts 354°
2026-04-26 15:19 28.42330 -81.28359 88 ft 1 kts 354°
2026-04-26 15:19 28.42351 -81.28361 87 ft 5 kts 356°
2026-04-26 15:19 28.42401 -81.28364 87 ft 8 kts
2026-04-26 15:20 28.42466 -81.28366 87 ft 9 kts 345°
2026-04-26 15:20 28.42499 -81.28427 87 ft 10 kts 260°
2026-04-26 15:20 28.42475 -81.28509 87 ft 11 kts 251°
2026-04-26 15:20 28.42446 -81.28601 86 ft 12 kts 250°
2026-04-26 15:21 28.42414 -81.28702 86 ft 14 kts 251°
2026-04-26 15:21 28.42379 -81.28812 86 ft 15 kts 250°
2026-04-26 15:21 28.42345 -81.28927 86 ft 15 kts 251°
2026-04-26 15:21 28.42307 -81.29050 86 ft 16 kts 253°
2026-04-26 15:22 28.42288 -81.29181 87 ft 17 kts 265°
2026-04-26 15:22 28.42285 -81.29318 87 ft 17 kts 270°
2026-04-26 15:22 28.42284 -81.29456 88 ft 17 kts 269°
2026-04-26 15:22 28.42282 -81.29591 89 ft 17 kts 269°
2026-04-26 15:23 28.42309 -81.29694 89 ft 13 kts 334°
2026-04-26 15:23 28.42406 -81.29700 89 ft 14 kts
2026-04-26 15:23 28.42509 -81.29701 90 ft 15 kts 359°
2026-04-26 15:23 28.42620 -81.29703 90 ft 16 kts
2026-04-26 15:24 28.42737 -81.29704 90 ft 17 kts
2026-04-26 15:24 28.42863 -81.29707 90 ft 18 kts 359°
2026-04-26 15:24 28.42993 -81.29707 90 ft 19 kts 359°
2026-04-26 15:24 28.43131 -81.29710 90 ft 20 kts 358°
2026-04-26 15:25 28.43273 -81.29710 90 ft 19 kts
2026-04-26 15:25 28.43387 -81.29711 90 ft 11 kts 359°
2026-04-26 15:25 28.43438 -81.29759 90 ft 10 kts 279°
2026-04-26 15:25 28.43438 -81.29835 90 ft 9 kts 265°
2026-04-26 15:26 28.43424 -81.29901 90 ft 7 kts 253°
2026-04-26 15:26 28.43423 -81.29958 90 ft 6 kts 282°
2026-04-26 15:26 28.43432 -81.29998 90 ft 3 kts 284°
2026-04-26 15:26 28.43432 -81.29999 90 ft 0 kts 284°